PRTAP SBJU-SBVC

Flight info

Callsign PRTAP
Flight time N/A
Altitude 40000
Route OGTID DCT ILPOM UZ1 LODOT
Aircraft C25A/L-SDFGRWY/S

Departure

Time 2026-04-19 17:51
Airport Orlando Bezerra de Menezes Airport (SBJU)

Arrival

Time N/A
Airport Glauber de Andrade Rocha Airport (SBVC)
Time Latitude Longitude Altitude Speed Heading
2026-04-19 17:45 -7.21625 -39.27083 1346 ft 0 kts 20°
2026-04-19 17:47 -7.21622 -39.27083 1346 ft 2 kts 358°
2026-04-19 17:48 -7.21633 -39.27116 1346 ft 11 kts 239°
2026-04-19 17:48 -7.21689 -39.27205 1346 ft 19 kts 234°
2026-04-19 17:48 -7.21768 -39.27309 1346 ft 18 kts 245°
2026-04-19 17:48 -7.21743 -39.27410 1346 ft 15 kts 292°
2026-04-19 17:49 -7.21696 -39.27528 1346 ft 21 kts 292°
2026-04-19 17:49 -7.21677 -39.27574 1346 ft 22 kts 292°
2026-04-19 17:49 -7.21615 -39.27757 1346 ft 0 kts 118°
2026-04-19 17:50 -7.21616 -39.27757 1346 ft 0 kts 118°
2026-04-19 17:50 -7.21649 -39.27668 1346 ft 52 kts 110°
2026-04-19 17:50 -7.21883 -39.27030 1347 ft 139 kts 111°
2026-04-19 17:51 -7.22300 -39.25956 1816 ft 186 kts 112°
2026-04-19 17:51 -7.22806 -39.24641 2517 ft 214 kts 110°
2026-04-19 17:51 -7.23413 -39.23118 3049 ft 254 kts 116°
2026-04-19 17:51 -7.24727 -39.21740 3299 ft 291 kts 147°
2026-04-19 17:52 -7.26623 -39.21162 3499 ft 282 kts 179°
2026-04-19 17:52 -7.28286 -39.21498 3686 ft 222 kts 202°
2026-04-19 17:52 -7.29673 -39.22262 4158 ft 244 kts 211°
2026-04-19 17:52 -7.31192 -39.23156 5449 ft 256 kts 210°
2026-04-19 17:53 -7.32760 -39.24041 7063 ft 270 kts 207°
2026-04-19 17:53 -7.34528 -39.24868 8144 ft 294 kts 202°
2026-04-19 17:53 -7.36344 -39.25600 8556 ft 231 kts 200°
2026-04-19 17:53 -7.37700 -39.26146 9550 ft 222 kts 199°
2026-04-19 17:54 -7.39249 -39.26689 10439 ft 242 kts 196°
2026-04-19 17:54 -7.40331 -39.27043 11262 ft 247 kts 195°
2026-04-19 17:54 -7.44162 -39.28279 14230 ft 252 kts 196°
2026-04-19 17:55 -7.45831 -39.28822 15483 ft 253 kts 196°
2026-04-19 17:55 -7.47605 -39.29401 15856 ft 288 kts 196°
2026-04-19 17:55 -7.49538 -39.30036 16832 ft 289 kts 197°
2026-04-19 17:55 -7.51532 -39.30694 17138 ft 298 kts 197°
2026-04-19 17:56 -7.53402 -39.31317 17153 ft 299 kts 197°
2026-04-19 17:56 -7.55462 -39.32001 17814 ft 304 kts 197°
2026-04-19 17:56 -7.57430 -39.32658 19039 ft 298 kts 197°
2026-04-19 17:56 -7.59420 -39.33321 19491 ft 293 kts 197°
2026-04-19 17:57 -7.61149 -39.33904 20621 ft 254 kts 197°
2026-04-19 17:57 -7.62868 -39.34477 21304 ft 263 kts 197°
2026-04-19 17:57 -7.64589 -39.35144 22159 ft 266 kts 203°
2026-04-19 17:57 -7.66258 -39.35954 22917 ft 270 kts 206°
2026-04-19 17:58 -7.67937 -39.36863 23641 ft 275 kts 208°
2026-04-19 17:58 -7.69611 -39.37820 24333 ft 278 kts 210°
2026-04-19 17:58 -7.71289 -39.38810 25002 ft 282 kts 210°
2026-04-19 17:58 -7.72981 -39.39827 25578 ft 289 kts 211°
2026-04-19 17:59 -7.74699 -39.40870 26288 ft 286 kts 212°
2026-04-19 17:59 -7.76403 -39.41913 26919 ft 287 kts 212°